Location: Suzhou
(31.3110°N, 120.6180°E)
Time: 13:11:42
(UTC+08:00)

FO-29 - Pass Details

Date: 26 April 2026
Orbit: 800 x 1320 km, 98.5° (Epoch: 15 May)

Event Time Altitude Azimuth Distance (km) Brightness Sun altitude
Rises 20:09:57 0° 10° (N) 4,033 13.0 -19.7°
Reaches altitude 10° 20:12:41 10° 9° (N) 2,997 12.3 -20.2°
Maximum altitude 20:19:26 76° 285° (WNW) 1,048 9.7 -21.5°
Drops below altitude 10° 20:25:19 10° 200° (SSW) 2,628 11.6 -22.5°
Sets 20:27:36 0° 199° (SSW) 3,507 12.3 -22.9°
